Melfa, VA

7:13 PM EDT on September 25, 2017 (GMT -0400)
Accomack County

Weather History for KMFV - November, 2013

Change the Weather History Date:

Wednesday, November 13, 2013

  Actual Average (KWAL) Record (KWAL)
Temperature  
Mean Temperature 39 °F -  
Max Temperature 46 °F 55 °F 76 °F (1985)
Min Temperature 32 °F 38 °F 27 °F (1996)
Degree Days  
Heating Degree Days 26    
Moisture  
Dew Point 20 °F    
Average Humidity 46    
Maximum Humidity 80    
Minimum Humidity 34    
Precipitation  
Precipitation 0.00 in - - ()
Sea Level Pressure  
Sea Level Pressure 30.41 in    
Wind  
Wind Speed 11 mph (NNW)    
Max Wind Speed 24 mph    
Max Gust Speed 32 mph    
Visibility 10 miles    
Events      
Averages and records for this station are not official NWS values.
T = Trace of Precipitation, MM = Missing Value Source: NWS Daily Summary

Daily Weather History Graph

Daily Weather History Graph

Search for Another Location

Airport or City:

Trip Planner

Search our weather history database for the weather conditions in past years. The results will help you decide how hot, cold, wet, or windy it might be!

Date:

Astronomy

Nov. 13, 2013 Rise Set
Actual Time 6:41 AM EST 4:53 PM EST
Civil Twilight 6:13 AM EST 5:21 PM EST
Nautical Twilight 5:41 AM EST 5:52 PM EST
Astronomical Twilight 5:10 AM EST 6:23 PM EST
Moon 2:35 PM EST (11/13) 2:36 AM EST (11/13)
Length of Visible Light 11h 07m
Length of Day
10h 12m
Waxing Gibbous, 84% of the Moon is Illuminated
Nov 13
Waxing Gibbous
Nov 17
Full
Nov 25
Last Quarter
Dec 2
New
Dec 9
First Quarter

Hourly Weather History & Observations

Time (EST) Temp. Windchill Dew Point Humidity Pressure Visibility Wind Dir Wind Speed Gust Speed Precip Events Conditions
12:15 AM 41.0 °F 34.7 °F 15.8 °F 36% 30.36 in 10.0 mi North 10.4 mph - N/A   Clear
12:35 AM 41.0 °F 34.7 °F 15.8 °F 36% 30.36 in 10.0 mi North 10.4 mph 19.6 mph N/A   Clear
12:56 AM 39.2 °F 32.5 °F 15.8 °F 39% 30.36 in 10.0 mi North 10.4 mph 16.1 mph N/A   Clear
1:15 AM 39.2 °F 31.6 °F 15.8 °F 39% 30.36 in 10.0 mi North 12.7 mph 19.6 mph N/A   Clear
1:35 AM 39.2 °F 32.5 °F 15.8 °F 39% 30.37 in 10.0 mi North 10.4 mph 18.4 mph N/A   Clear
1:55 AM 39.2 °F 32.5 °F 15.8 °F 39% 30.37 in 10.0 mi North 10.4 mph 21.9 mph N/A   Clear
2:15 AM 39.2 °F 32.0 °F 15.8 °F 39% 30.37 in 10.0 mi North 11.5 mph 19.6 mph N/A   Clear
2:35 AM 39.2 °F 32.5 °F 15.8 °F 39% 30.37 in 10.0 mi North 10.4 mph - N/A   Clear
2:55 AM 39.2 °F 32.5 °F 17.6 °F 42% 30.36 in 10.0 mi North 10.4 mph 19.6 mph N/A   Clear
3:16 AM 39.2 °F 33.0 °F 17.6 °F 42% 30.37 in 10.0 mi North 9.2 mph 17.3 mph N/A   Scattered Clouds
3:35 AM 39.2 °F 32.0 °F 17.6 °F 42% 30.37 in 10.0 mi North 11.5 mph - N/A   Mostly Cloudy
3:55 AM 39.2 °F 33.0 °F 19.4 °F 45% 30.37 in 10.0 mi North 9.2 mph - N/A   Mostly Cloudy
4:15 AM 39.2 °F 33.0 °F 17.6 °F 42% 30.37 in 10.0 mi North 9.2 mph 17.3 mph N/A   Overcast
4:35 AM 39.2 °F 34.2 °F 19.4 °F 45% 30.37 in 10.0 mi North 6.9 mph - N/A   Mostly Cloudy
4:55 AM 39.2 °F 33.6 °F 19.4 °F 45% 30.37 in 10.0 mi North 8.1 mph - N/A   Mostly Cloudy
5:16 AM 39.2 °F 34.2 °F 19.4 °F 45% 30.38 in 10.0 mi North 6.9 mph 16.1 mph N/A   Mostly Cloudy
5:35 AM 39.2 °F 32.5 °F 21.2 °F 49% 30.39 in 10.0 mi North 10.4 mph - N/A   Mostly Cloudy
5:55 AM 39.2 °F 34.2 °F 21.2 °F 49% 30.39 in 10.0 mi North 6.9 mph 18.4 mph N/A   Mostly Cloudy
6:15 AM 39.2 °F 30.5 °F 19.4 °F 45% 30.39 in 10.0 mi North 16.1 mph 21.9 mph N/A   Mostly Cloudy
6:35 AM 39.2 °F 31.6 °F 19.4 °F 45% 30.40 in 10.0 mi North 12.7 mph 20.7 mph N/A   Overcast
6:56 AM 39.2 °F 31.6 °F 19.4 °F 45% 30.41 in 10.0 mi North 12.7 mph 25.3 mph N/A   Overcast
7:15 AM 39.2 °F 31.6 °F 19.4 °F 45% 30.41 in 10.0 mi North 12.7 mph 25.3 mph N/A   Overcast
7:35 AM 39.2 °F 31.2 °F 21.2 °F 49% 30.41 in 10.0 mi NNW 13.8 mph 19.6 mph N/A   Overcast
7:55 AM 41.0 °F 33.5 °F 19.4 °F 42% 30.42 in 10.0 mi North 13.8 mph 26.5 mph N/A   Overcast
8:15 AM 39.2 °F 30.2 °F 19.4 °F 45% 30.43 in 10.0 mi NNW 17.3 mph 26.5 mph N/A   Mostly Cloudy
8:36 AM 41.0 °F 31.6 °F 17.6 °F 39% 30.43 in 10.0 mi NNW 20.7 mph 32.2 mph N/A   Mostly Cloudy
8:55 AM 41.0 °F 30.9 °F 17.6 °F 39% 30.43 in 10.0 mi NNW 24.2 mph 29.9 mph N/A   Overcast
9:17 AM 41.0 °F 34.3 °F 19.4 °F 42% 30.43 in 10.0 mi NNW 11.5 mph 26.5 mph N/A   Overcast
9:35 AM 41.0 °F 31.9 °F 23.0 °F 49% 30.44 in 10.0 mi North 19.6 mph 29.9 mph N/A   Overcast
9:55 AM 41.0 °F 34.7 °F 21.2 °F 45% 30.44 in 10.0 mi NNW 10.4 mph 21.9 mph N/A   Overcast
10:17 AM 41.0 °F 32.2 °F 21.2 °F 45% 30.45 in 10.0 mi NNW 18.4 mph 25.3 mph N/A   Overcast
10:35 AM 41.0 °F 32.5 °F 19.4 °F 42% 30.44 in 10.0 mi NNW 17.3 mph 25.3 mph N/A   Overcast
10:55 AM 41.0 °F 35.8 °F 19.4 °F 42% 30.44 in 10.0 mi NNW 8.1 mph 25.3 mph N/A   Overcast
11:15 AM 42.8 °F 35.1 °F 21.2 °F 42% 30.44 in 10.0 mi NNW 16.1 mph 23.0 mph N/A   Overcast
11:35 AM 42.8 °F 36.6 °F 19.4 °F 39% 30.43 in 10.0 mi NW 11.5 mph 19.6 mph N/A   Mostly Cloudy
11:55 AM 42.8 °F 35.4 °F 19.4 °F 39% 30.43 in 10.0 mi NNW 15.0 mph 23.0 mph N/A   Mostly Cloudy
12:15 PM 42.8 °F 34.8 °F 19.4 °F 39% 30.42 in 10.0 mi NNW 17.3 mph 26.5 mph N/A   Mostly Cloudy
12:35 PM 44.6 °F 37.4 °F 19.4 °F 37% 30.41 in 10.0 mi NNW 16.1 mph 24.2 mph N/A   Mostly Cloudy
12:55 PM 44.6 °F 37.8 °F 19.4 °F 37% 30.42 in 10.0 mi NNW 15.0 mph 27.6 mph N/A   Scattered Clouds
1:15 PM 46.4 °F 38.7 °F 19.4 °F 34% 30.41 in 10.0 mi NW 20.7 mph 26.5 mph N/A   Mostly Cloudy
1:35 PM 44.6 °F 37.4 °F 19.4 °F 37% 30.41 in 10.0 mi NW 16.1 mph 27.6 mph N/A   Mostly Cloudy
1:55 PM 44.6 °F 38.1 °F 17.6 °F 34% 30.41 in 10.0 mi NNW 13.8 mph 27.6 mph N/A   Scattered Clouds
2:15 PM 46.4 °F 39.5 °F 19.4 °F 34% 30.41 in 10.0 mi NNW 17.3 mph 24.2 mph N/A   Scattered Clouds
2:35 PM 44.6 °F 36.9 °F 17.6 °F 34% 30.41 in 10.0 mi NNW 18.4 mph 27.6 mph N/A   Clear
2:55 PM 44.6 °F 37.8 °F 19.4 °F 37% 30.41 in 10.0 mi NNW 15.0 mph 25.3 mph N/A   Scattered Clouds
3:16 PM 44.6 °F 40.2 °F 19.4 °F 37% 30.41 in 10.0 mi NNW 8.1 mph 20.7 mph N/A   Scattered Clouds
3:35 PM 44.6 °F 38.8 °F 19.4 °F 37% 30.41 in 10.0 mi NNW 11.5 mph 25.3 mph N/A   Clear
3:55 PM 44.6 °F 39.2 °F 21.2 °F 39% 30.42 in 10.0 mi NNW 10.4 mph 21.9 mph N/A   Clear
4:15 PM 44.6 °F 41.4 °F 21.2 °F 39% 30.42 in 10.0 mi NW 5.8 mph - N/A   Clear
4:35 PM 44.6 °F 40.2 °F 21.2 °F 39% 30.42 in 10.0 mi NNW 8.1 mph - N/A   Clear
4:55 PM 42.8 °F 38.6 °F 21.2 °F 42% 30.42 in 10.0 mi NNW 6.9 mph - N/A   Clear
5:17 PM 42.8 °F 38.6 °F 21.2 °F 42% 30.43 in 10.0 mi NNW 6.9 mph - N/A   Unknown
5:35 PM 41.0 °F 39.0 °F 23.0 °F 49% 30.43 in 10.0 mi NNW 3.5 mph - N/A   Clear
5:55 PM 42.8 °F 41.1 °F 21.2 °F 42% 30.43 in 10.0 mi NW 3.5 mph - N/A   Clear
6:15 PM 39.2 °F 35.0 °F 21.2 °F 49% 30.44 in 10.0 mi NW 5.8 mph - N/A   Clear
6:35 PM 39.2 °F 34.2 °F 21.2 °F 49% 30.45 in 10.0 mi NW 6.9 mph - N/A   Clear
6:55 PM 39.2 °F 35.0 °F 21.2 °F 49% 30.45 in 10.0 mi NW 5.8 mph - N/A   Clear
7:15 PM 39.2 °F 35.9 °F 23.0 °F 52% 30.45 in 10.0 mi NW 4.6 mph - N/A   Clear
7:35 PM 41.0 °F 38.0 °F 21.2 °F 45% 30.44 in 10.0 mi NW 4.6 mph - N/A   Clear
7:56 PM 39.2 °F 35.9 °F 23.0 °F 52% 30.44 in 10.0 mi West 4.6 mph - N/A   Clear
8:15 PM 39.2 °F 35.0 °F 24.8 °F 56% 30.44 in 10.0 mi WNW 5.8 mph - N/A   Clear
8:35 PM 39.2 °F 35.9 °F 24.8 °F 56% 30.44 in 10.0 mi NW 4.6 mph - N/A   Clear
8:55 PM 39.2 °F 35.9 °F 24.8 °F 56% 30.44 in 10.0 mi NW 4.6 mph - N/A   Clear
9:15 PM 37.4 °F 34.9 °F 24.8 °F 60% 30.45 in 10.0 mi NW 3.5 mph - N/A   Clear
9:35 PM 37.4 °F - 24.8 °F 60% 30.44 in 10.0 mi Calm Calm - N/A   Clear
9:55 PM 35.6 °F - 24.8 °F 65% 30.44 in 10.0 mi Calm Calm - N/A   Clear
10:15 PM 33.8 °F - 24.8 °F 70% 30.43 in 10.0 mi Calm Calm - N/A   Clear
10:35 PM 33.8 °F - 26.6 °F 75% 30.43 in 10.0 mi Calm Calm - N/A   Clear
10:55 PM 33.8 °F - 26.6 °F 75% 30.43 in 10.0 mi Calm Calm - N/A   Clear
11:15 PM 32.0 °F - 24.8 °F 75% 30.43 in 10.0 mi Calm Calm - N/A   Clear
11:35 PM 32.0 °F - 26.6 °F 80% 30.42 in 10.0 mi Calm Calm - N/A   Clear
11:55 PM 32.0 °F 28.7 °F 24.8 °F 75% 30.42 in 10.0 mi SSW 3.5 mph - N/A   Clear